User: anonymous   Login
Location: Petrozavodsk
(61.7857°N, 34.3593°E)
Time: 09:47:21
(UTC+03:00)
Language:

AQUA - Orbit

View from above orbital plane
View from above orbital plane
View from above satellite
View from above satellite

Ground track
Ground track

The orbit data is extracted from the following two-line orbital elements,

1 27424U 02022A   18114.93289500 +.00000091 +00000-0 +30212-4 0  9998
2 27424 098.1988 056.9520 0000759 182.4722 267.5109 14.57128194849629
Epoch (UTC): 24 April 2018 22:23:22
Eccentricity: 0.0000759
inclination: 98.1988°
perigee height: 702 km
apogee height: 703 km
right ascension of ascending node: 56.9520°
argument of perigee: 182.4722°
revolutions per day: 14.57128194
mean anomaly at epoch: 267.5109°
orbit number at epoch: 84962

The dashed part of the orbit path shows where the satellite is in the earth's shadow,  

DLR